RH
61 75 73 61 56 46 56 65 74 71 60 70 68 72 62 54 59 65 67 70 71 72 65 68 69 60 54 61 68 64 66 65 87 87 86 86 84 72 60 45 40 34 31 28
64 69 54 55 57 60 65 73 74 69 60 72 81 73 61 57 53 62 71 72 74 74 73 70 65 59 61 69 76 66 68 81 90 98 97 99 88 83 77 57 46 41 34 32
63 58 52 57 66 69 69 72 71 82 78 67 78 62 49 48 61 67 71 72 75 79 80 78 74 66 68 75 72 63 73 86 92 94 96 99 100 91 79 61 51 46 46 47
65 55 59 67 73 64 71 60 73 83 92 96 73 78 63 55 66 61 73 80 78 78 78 81 77 71 68 63 62 70 82 88 94 98 100 100 99 100 89 75 62 49 47 41
57 64 65 68 66 61 65 64 80 80 94 88 76 91 68 68 55 51 60 73 74 76 82 83 77 74 60 57 67 68 81 86 95 100 100 100 100 100 89 74 61 49 70 76
68 59 62 60 63 62 68 74 76 85 87 88 70 83 77 70 64 49 54 60 68 74 80 82 72 72 58 55 66 67 75 83 94 99 100 100 100 97 89 79 61 61 99 99
72 71 63 61 67 64 76 77 83 72 85 77 78 91 79 54 54 62 60 63 70 74 82 84 86 71 60 55 61 68 71 75 89 94 99 98 96 100 99 100 94 88 98 99
85 49 68 65 64 69 80 77 86 60 90 88 77 94 68 57 58 72 72 78 80 82 84 85 84 62 59 56 56 66 66 71 83 93 94 98 96 98 99 98 100 100 100 93
84 61 62 66 61 61 74 87 70 93 84 86 90 72 52 56 63 63 71 76 80 80 81 83 78 54 56 52 54 61 65 73 79 88 90 96 98 99 98 97 100 100 100 96
69 81 54 62 58 62 65 72 76 86 65 55 71 79 71 57 52 46 49 59 64 70 77 82 69 52 51 47 52 55 63 64 71 77 76 80 89 92 93 93 90 88 86 85
63 74 54 70 80 80 83 84 83 74 83 90 88 65 69 62 60 49 50 54 61 65 71 78 70 47 45 45 49 49 52 58 60 68 67 65 63 70 78 76 77 74 70 70
62 79 92 66 57 58 69 72 81 82 46 88 85 76 47 55 60 66 63 56 58 64 69 77 67 43 44 46 43 46 48 48 48 56 53 55 54 51 49 50 53 52 50 51
63 70 81 35 48 56 69 72 71 67 74 81 82 52 38 55 65 67 70 64 64 62 61 66 54 50 46 45 43 42 46 44 46 45 47 47 49 50 50 48 47 46 44 44
56 72 52 45 23 58 69 65 67 68 89 77 67 45 26 26 29 29 34 40 44 47 52 65 58 54 46 44 42 40 43 45 44 45 41 41 44 47 48 48 48 47 48 45
66 80 83 77 70 68 65 61 64 80 65 61 41 46 32 31 38 40 40 43 47 47 47 61 61 59 50 45 42 41 40 43 42 45 44 43 45 46 45 46 47 47 50 54
76 71 78 89 74 78 80 74 72 63 57 59 54 54 35 33 36 46 46 46 48 46 46 53 63 60 55 49 43 40 39 41 42 44 43 44 46 48 49 51 53 53 52 53
81 88 81 81 71 74 59 56 61 65 70 62 72 49 34 38 38 46 43 40 43 44 43 46 56 64 53 47 42 42 36 38 45 44 45 47 50 50 52 54 55 54 56 56
80 79 78 89 73 42 24 39 44 56 55 58 53 50 43 42 45 45 44 44 42 42 44 47 54 54 50 46 43 40 39 39 44 46 46 48 51 52 53 56 58 59 62 62
69 72 65 84 92 60 29 35 50 51 27 43 43 42 41 43 46 40 39 44 42 40 45 46 42 44 47 46 43 42 41 40 45 46 45 46 48 50 52 53 54 56 60 63
73 64 63 88 87 62 22 27 33 26 28 17 39 40 40 38 39 32 26 35 43 41 38 39 37 44 48 46 44 43 42 43 46 42 38 39 44 46 46 48 53 57 62 63
89 87 81 76 92 75 52 48 34 30 21 18 29 26 33 40 35 26 36 40 38 39 39 36 41 48 45 48 47 46 44 44 34 33 35 40 44 46 47 53 55 56 61 65
85 91 93 85 94 90 52 45 46 32 22 22 23 23 30 39 38 40 36 41 45 50 43 36 44 45 42 48 47 47 48 36 36 35 40 44 47 51 52 53 53 60 64 67
59 57 68 70 65 41 47 40 34 34 38 36 38 36 41 42 41 38 39 40 40 44 41 37 45 46 46 49 47 49 41 41 39 39 42 46 51 52 53 54 55 64 66 67
53 48 62 60 43 39 37 39 41 36 39 38 38 43 42 44 41 40 42 43 43 43 47 38 46 57 56 49 49 44 43 42 42 42 45 48 54 55 55 55 57 60 64 68
47 51 59 67 49 42 41 40 42 45 45 47 44 44 45 45 42 42 40 38 41 43 45 44 50 55 53 47 50 46 46 46 46 45 48 53 56 58 55 54 57 60 60 65
54 55 62 62 44 45 43 38 40 45 45 44 47 51 50 49 47 45 43 40 42 44 44 51 51 54 50 50 50 51 50 48 48 56 58 57 59 58 58 57 63 67 70 80
Wind_Speed
4 7 3 1 2 3 3 0 3 5 3 7 4 14 20 15 7 6 5 5 6 7 6 10 11 14 17 20 24 28 30 33 26 26 24 20 24 26 24 22 22 22 23 21
6 3 2 2 1 1 1 2 5 6 3 4 6 19 12 6 2 2 6 6 7 6 6 10 15 16 18 21 21 27 29 27 24 23 21 19 23 25 25 22 19 18 19 20
5 2 1 2 2 3 2 2 2 5 7 1 8 7 5 2 3 3 5 5 5 7 8 7 14 18 20 20 22 26 26 21 21 20 21 20 20 18 18 17 16 16 13 16
4 1 1 1 2 1 3 3 2 5 5 3 5 4 6 4 8 6 8 8 8 8 6 7 12 16 19 20 22 21 22 22 20 20 17 16 17 15 18 18 16 15 14 16
2 3 2 2 2 1 4 2 3 1 1 4 1 3 7 4 6 6 7 8 9 8 7 8 11 15 14 16 19 19 19 20 19 18 14 17 17 17 18 16 13 11 10 8
1 1 2 2 2 1 4 3 5 3 1 3 2 4 5 4 6 5 3 4 7 8 8 9 13 12 12 13 15 17 18 20 17 17 16 15 17 14 18 13 10 6 1 3
4 1 1 1 2 2 7 5 3 5 4 4 2 2 10 7 7 7 8 8 7 8 8 7 7 10 10 10 13 15 16 19 19 16 16 15 14 12 8 10 6 4 9 9
3 6 1 2 2 3 2 4 4 4 2 5 1 6 6 6 5 7 7 8 7 8 8 8 9 11 10 9 9 11 14 16 17 16 14 14 12 10 10 8 6 8 12 10
3 4 1 2 1 4 1 1 2 3 2 3 3 7 10 6 6 4 8 7 9 9 8 9 10 12 11 9 8 9 11 12 13 13 12 14 13 11 9 9 8 10 12 13
3 4 2 2 1 1 2 4 2 3 2 5 5 6 6 4 6 5 5 8 9 7 7 7 8 11 11 9 8 8 7 8 10 10 12 13 13 12 11 9 11 12 12 11
4 3 4 1 5 6 2 1 1 2 4 3 4 7 8 9 8 7 8 8 8 8 8 7 8 12 10 9 8 7 6 5 6 7 8 9 10 12 11 10 9 9 8 9
1 3 4 8 1 1 3 5 5 4 3 2 1 8 4 8 7 6 8 8 7 7 8 7 10 11 11 11 9 8 5 3 2 2 4 5 7 8 8 8 8 7 7 7
4 0 4 6 4 2 4 5 4 3 2 6 4 7 3 4 7 8 8 9 9 8 9 8 7 10 14 13 12 11 10 7 4 2 1 2 4 4 5 6 5 5 5 5
4 4 7 6 4 3 4 5 6 6 3 4 11 16 23 13 13 13 10 10 9 9 9 7 7 9 16 16 16 15 13 10 7 5 3 3 2 3 3 3 3 3 3 4
4 5 5 7 13 10 15 15 10 11 13 9 3 10 22 15 10 9 9 9 9 10 9 7 8 8 17 18 18 17 15 13 10 8 6 4 2 2 2 2 2 2 2 3
1 4 1 6 14 9 11 16 19 21 22 21 26 30 30 28 18 11 9 8 9 10 9 9 8 8 15 22 23 21 19 17 14 11 9 6 5 4 3 2 1 1 1 1
4 2 3 6 4 9 9 8 13 8 6 20 15 20 15 18 13 10 9 7 9 9 9 9 9 9 19 26 27 27 24 19 18 15 13 11 9 7 6 5 4 3 2 1
5 4 2 5 7 2 5 3 6 12 7 17 12 12 12 13 9 11 11 10 12 8 8 8 7 13 20 24 24 24 21 21 20 18 15 13 12 10 8 7 6 4 3 2
5 5 2 3 3 10 6 2 5 6 7 13 20 17 17 7 7 8 8 9 12 8 7 10 15 16 17 17 22 24 22 22 21 20 18 15 13 11 9 8 7 6 6 5
5 3 4 2 2 6 4 1 0 2 6 3 7 9 6 2 4 5 6 5 7 11 10 13 15 14 14 17 19 25 26 26 27 25 22 18 17 15 13 10 8 6 5 4
4 2 12 8 5 10 11 8 5 0 5 1 3 4 4 4 6 7 7 7 7 10 16 15 13 15 17 14 19 26 28 30 31 25 22 20 18 16 12 10 9 7 5 5
8 8 5 5 5 10 8 5 7 5 3 2 4 4 6 10 10 10 13 11 10 10 17 16 14 18 16 14 20 27 28 31 26 23 22 21 19 16 13 12 10 9 7 6
3 7 6 13 9 3 7 8 11 0 4 10 7 14 10 12 12 14 13 12 12 14 18 19 17 19 17 16 22 25 34 27 24 24 24 22 19 17 15 14 12 10 9 8
5 7 5 1 9 18 15 15 15 16 14 14 14 10 10 13 16 16 13 11 11 15 16 23 18 17 20 20 24 31 29 25 25 28 27 25 23 20 17 15 13 12 11 9
5 4 4 7 16 18 17 18 15 15 11 11 10 10 15 18 18 14 13 17 14 17 19 20 19 19 23 22 25 28 31 26 27 29 28 26 24 21 19 17 15 14 12 11
9 22 11 15 18 16 19 20 20 22 20 20 21 21 20 15 16 15 15 16 17 18 22 17 21 21 25 23 25 27 30 31 30 27 27 28 26 23 20 18 15 12 10 8
Wind_Direction
7 69 91 276 22 132 117 159 274 263 275 317 244 280 291 298 261 269 235 250 277 286 288 305 310 325 330 337 337 338 337 334 327 325 319 314 303 301 295 286 286 277 277 284
29 85 204 267 352 65 76 329 292 281 252 306 333 301 292 289 295 204 210 237 260 293 306 306 319 324 327 320 329 336 336 330 323 322 315 295 296 295 298 294 287 283 277 286
111 147 162 54 356 0 264 220 287 250 317 299 317 306 333 345 314 267 249 246 266 264 284 297 306 316 325 331 335 332 331 335 335 337 325 310 304 295 293 301 296 294 295 284
86 239 73 47 249 179 292 198 298 313 19 296 34 282 301 316 296 256 253 241 254 265 268 276 287 311 330 326 328 334 337 340 332 327 317 303 295 287 296 306 304 304 299 293
235 169 198 224 226 180 249 344 312 344 42 17 357 67 270 337 289 283 272 244 249 253 252 270 284 306 315 327 336 341 343 343 338 326 328 325 304 291 301 302 307 314 306 308
134 244 192 241 296 251 339 17 42 53 18 23 240 121 278 210 216 272 259 247 255 264 256 261 286 296 305 331 342 344 346 349 349 345 349 348 343 337 327 312 307 322 131 120
333 262 266 194 351 24 45 46 342 355 9 222 230 54 246 251 245 237 271 278 262 264 265 269 279 288 292 316 340 347 347 352 1 357 359 5 356 4 347 340 328 111 132 116
65 336 193 152 186 191 70 120 139 245 310 283 261 233 250 215 246 264 263 263 266 264 258 259 259 260 268 286 311 337 352 352 3 11 3 11 21 21 23 22 35 102 129 126
44 282 280 197 159 120 120 36 171 116 257 294 252 284 291 258 272 261 263 266 263 254 253 251 254 247 254 273 287 307 336 353 9 17 26 22 32 41 38 45 69 92 106 119
186 323 270 324 95 53 176 158 43 14 13 302 288 280 240 274 224 239 263 256 266 261 260 257 251 252 255 270 284 298 307 347 8 23 38 40 41 52 60 59 53 52 68 82
139 132 281 99 199 186 120 294 100 124 155 196 299 269 214 213 207 215 241 253 265 278 271 259 249 248 249 259 275 284 296 312 348 16 27 44 53 52 54 57 54 49 51 66
196 148 269 228 200 202 191 203 156 129 239 240 169 271 254 230 245 260 270 280 281 271 281 268 250 239 241 249 252 252 263 281 353 1 37 49 58 67 69 62 54 52 55 57
179 291 329 344 4 15 218 201 173 121 87 206 157 261 4 320 289 270 262 276 278 277 285 268 246 233 237 243 240 240 236 233 220 199 178 106 93 88 82 77 68 59 56 61
134 178 199 207 208 156 222 216 195 167 175 205 229 277 269 283 284 286 278 267 274 274 277 272 245 229 238 240 239 237 237 236 230 219 203 186 136 99 94 85 77 75 68 61
149 232 202 252 261 251 254 248 223 208 216 214 265 242 273 281 274 265 270 283 289 291 296 274 255 233 232 235 235 236 233 230 223 219 222 227 216 185 167 154 132 100 77 73
186 271 314 261 257 255 258 243 232 234 237 251 259 273 274 275 289 279 277 281 285 284 285 284 258 225 229 229 232 231 229 225 218 218 220 218 221 225 223 214 207 188 115 94
170 211 4 274 331 305 281 233 195 196 218 220 231 238 268 284 277 265 267 268 264 267 284 287 273 243 231 232 229 224 223 218 216 216 212 211 215 219 216 213 209 210 201 182
156 148 189 285 341 306 262 265 183 202 222 215 249 261 265 266 276 269 253 241 259 250 264 276 272 278 263 248 233 227 219 215 215 214 216 214 213 212 209 210 214 213 201 203
178 145 290 271 283 293 297 129 132 182 283 221 234 253 264 300 293 290 245 230 244 229 243 264 294 299 283 256 231 216 209 212 214 218 220 220 220 224 233 234 224 212 205 209
108 131 169 161 232 255 254 12 89 198 290 241 192 235 254 326 326 276 303 274 233 243 259 282 297 297 279 264 228 207 208 207 214 218 221 221 221 224 221 221 232 245 242 234
121 144 217 228 265 277 253 246 351 93 239 206 218 217 175 210 237 265 298 279 257 272 284 293 284 277 279 268 222 210 211 212 223 219 219 220 220 224 229 234 229 220 236 252
173 161 192 175 217 269 173 88 169 225 294 291 264 274 254 259 276 274 281 271 265 262 277 280 271 269 274 252 215 212 214 227 225 221 219 219 219 222 225 228 228 227 234 246
253 200 193 190 213 230 205 204 227 81 285 285 285 292 278 281 280 282 277 275 273 260 261 273 258 267 263 241 221 215 231 227 220 214 216 217 215 221 223 224 226 227 231 234
239 190 228 123 258 261 263 254 257 279 275 276 273 273 284 282 291 280 272 277 273 269 253 263 254 250 255 244 231 233 235 230 217 214 214 213 211 212 217 222 223 227 228 230
232 152 202 257 268 280 266 271 282 281 283 289 285 273 282 288 286 276 282 293 281 271 267 257 242 245 253 253 242 239 235 227 216 217 216 212 213 212 213 218 221 221 232 233
238 253 259 264 274 280 287 299 302 296 295 296 297 294 291 276 274 277 281 285 279 274 275 255 252 253 257 255 252 247 236 223 216 206 209 211 211 210 212 213 214 221 229 234